St. Joseph, KS

8:40 PM CST on December 09, 2019 (GMT -0600)
Rosecrans Memorial

Weather History for KSTJ - October, 2019

Change the Weather History Date:

Tuesday, October 15, 2019

  Actual Average Record
Temperature  
Mean Temperature 55 °F 55 °F  
Max Temperature 64 °F 67 °F 90 °F (1938)
Min Temperature 43 °F 43 °F 25 °F (1974)
Degree Days  
Heating Degree Days 10 10  
Month to date heating degree days 125  
Since 1 July heating degree days 205  
Cooling Degree Days 0 0  
Month to date cooling degree days 18  
Year to date cooling degree days 1217  
Growing Degree Days 5 (Base 50)    
Moisture  
Dew Point 42 °F    
Average Humidity 65    
Maximum Humidity 96    
Minimum Humidity 31    
Precipitation  
Precipitation 0.00 in 0.10 in 1.36 in (1930)
Month to date precipitation 1.40  
Year to date precipitation 31.12  
Sea Level Pressure  
Sea Level Pressure 29.95 in    
Wind  
Wind Speed 9 mph (NW)    
Max Wind Speed 22 mph    
Max Gust Speed 31 mph    
Visibility 9 miles    
Events      
T = Trace of Precipitation, MM = Missing Value Source: NWS Daily Summary

Daily Weather History Graph

Daily Weather History Graph

Search for Another Location

Airport or City:

Astronomy

Oct. 15, 2019 Rise Set
Actual Time 7:29 AM CDT 6:40 PM CDT
Civil Twilight 7:02 AM CDT 7:07 PM CDT
Nautical Twilight 6:31 AM CDT 7:38 PM CDT
Astronomical Twilight 5:59 AM CDT 8:10 PM CDT
Moon 8:01 PM CDT (10/15) 9:00 AM CDT (10/15)
Length of Visible Light 12h 05m
Length of Day
11h 10m
Full, 97% of the Moon is Illuminated
Oct 15
Full
Oct 21
Last Quarter
Oct 27
New
Nov 4
First Quarter
Nov 12
Full

Hourly Weather History & Observations

Time (CDT) Temp. Windchill Dew Point Humidity Pressure Visibility Wind Dir Wind Speed Gust Speed Precip Events Conditions
12:53 AM 52.0 °F - 46.9 °F 83% 29.84 in 10.0 mi South 5.8 mph - N/A   Clear
1:53 AM 52.0 °F - 48.0 °F 86% 29.82 in 10.0 mi South 8.1 mph - N/A   Clear
2:53 AM 57.0 °F - 52.0 °F 83% 29.81 in 10.0 mi South 4.6 mph - N/A   Clear
3:53 AM 53.1 °F - 51.1 °F 93% 29.81 in 10.0 mi South 6.9 mph - N/A   Clear
4:53 AM 54.0 °F - 52.0 °F 93% 29.81 in 9.0 mi SSW 4.6 mph - N/A   Clear
5:26 AM 53.1 °F - 52.0 °F 96% 29.84 in 7.0 mi SSW 3.5 mph - N/A   Scattered Clouds
5:53 AM 53.1 °F - 52.0 °F 96% 29.85 in 6.0 mi NW 3.5 mph - N/A   Mostly Cloudy
6:53 AM 55.9 °F - 54.0 °F 93% 29.87 in 7.0 mi WSW 4.6 mph - N/A   Overcast
7:42 AM 55.9 °F - 53.1 °F 90% 29.89 in 8.0 mi WNW 5.8 mph - N/A   Mostly Cloudy
7:53 AM 55.0 °F - 52.0 °F 89% 29.89 in 9.0 mi NW 8.1 mph - N/A   Partly Cloudy
8:53 AM 55.9 °F - 48.0 °F 75% 29.94 in 10.0 mi NW 9.2 mph - N/A   Clear
9:53 AM 57.0 °F - 43.0 °F 59% 29.95 in 10.0 mi NNW 11.5 mph 24.2 mph N/A   Clear
10:53 AM 60.1 °F - 42.1 °F 51% 29.97 in 10.0 mi NNW 13.8 mph 20.7 mph N/A   Clear
11:53 AM 61.0 °F - 39.9 °F 46% 30.00 in 10.0 mi NNW 18.4 mph 27.6 mph N/A   Clear
12:53 PM 62.1 °F - 37.9 °F 41% 29.99 in 10.0 mi North 19.6 mph 31.1 mph N/A   Clear
1:53 PM 63.0 °F - 41.0 °F 45% 29.99 in 10.0 mi NW 13.8 mph 24.2 mph N/A   Clear
2:53 PM 64.0 °F - 35.1 °F 34% 29.98 in 10.0 mi NW 21.9 mph 31.1 mph N/A   Clear
3:53 PM 63.0 °F - 32.0 °F 31% 29.99 in 10.0 mi NNW 17.3 mph 23.0 mph N/A   Clear
4:53 PM 62.1 °F - 30.9 °F 31% 30.00 in 10.0 mi NW 11.5 mph 26.5 mph N/A   Clear
5:53 PM 59.0 °F - 33.1 °F 38% 30.03 in 10.0 mi NNW 15.0 mph 25.3 mph N/A   Clear
6:53 PM 55.0 °F - 30.9 °F 40% 30.06 in 10.0 mi NNW 15.0 mph 24.2 mph N/A   Clear
7:53 PM 52.0 °F - 32.0 °F 47% 30.10 in 10.0 mi NNW 12.7 mph 24.2 mph N/A   Clear
8:53 PM 50.0 °F - 32.0 °F 50% 30.12 in 10.0 mi NNW 13.8 mph - N/A   Clear
10:53 PM 46.0 °F 41.0 °F 33.1 °F 61% 30.15 in 10.0 mi NNW 10.4 mph - N/A   Clear
11:53 PM 43.0 °F 39.5 °F 33.1 °F 68% 30.16 in 10.0 mi NNW 5.8 mph - N/A   Clear